DateTimeUTC,F1_A11,F1_S11,BsB_S11,BsG_S11,BsR_S11,BbsB_S11,BbsG_S11,BbsR_S11,BaB_A11,BaG_A11,BaR_A11,Tu_S11,T_S11,Uu_S11,U_S11,P_S11,T1_A11
2021-09-21T20:00:00Z,00000200,21000000,,,,,,,-000.14,-000.50,-000.01,18.5,25.5,,00.0,0653.3,31.0
2021-09-21T20:01:00Z,00000200,21000000,,,,,,,-000.34,-000.30,-000.65,18.5,25.5,,00.0,0653.3,31.0
2021-09-21T20:02:00Z,00000200,21000000,,,,,,,-000.28,-000.16,0000.09,18.4,25.5,,00.0,0653.3,31.0
2021-09-21T20:03:00Z,00000200,61000000,,,,,,,0000.03,0000.33,0000.30,18.4,25.5,,00.0,0653.3,31.0
2021-09-21T20:04:00Z,00000200,41000000,0002.79,0001.16,0000.93,-000.05,0000.05,0000.27,0000.78,0000.23,0000.14,18.4,25.2,,00.0,0654.2,31.0
2021-09-21T20:05:00Z,00000200,01000000,0001.50,0001.53,0000.22,0000.56,0000.22,-000.13,0000.21,0000.79,0000.33,18.4,25.1,,00.0,0654.3,31.0
2021-09-21T20:06:00Z,00000200,01000000,0002.63,0000.61,0000.59,0000.47,0000.45,0000.02,0000.67,0000.19,0000.48,18.5,25.1,,00.0,0654.3,31.0
2021-09-21T20:07:00Z,00000200,01000000,0002.60,0001.17,0000.83,0000.40,0000.25,0000.19,0000.43,0000.29,0000.45,18.6,25.1,,00.0,0654.3,31.0
2021-09-21T20:08:00Z,00000200,01000000,0001.77,0000.87,0000.74,0000.08,-000.16,0000.38,0000.56,0000.32,0000.21,18.7,25.2,,00.0,0654.3,31.0
2021-09-21T20:09:00Z,00000200,01000000,0001.58,0001.38,0000.82,0001.08,-000.01,0000.24,0000.10,0000.44,0000.35,18.7,25.2,,00.0,0654.3,31.0
2021-09-21T20:10:00Z,00000200,01000000,0001.72,0001.01,0000.71,0000.21,0000.20,0000.12,0000.40,0000.44,0000.44,18.8,25.2,,00.0,0654.3,31.0
2021-09-21T20:11:00Z,00000200,01000000,0002.12,0001.01,0000.64,0000.32,0000.54,0000.28,0000.35,0000.31,0000.12,18.8,25.2,,00.0,0654.3,31.0
2021-09-21T20:12:00Z,00000200,01000000,0001.87,0001.18,0000.39,0000.28,0000.33,-000.03,0000.21,0000.27,-000.00,18.8,25.2,,00.0,0654.3,31.0
2021-09-21T20:13:00Z,00000200,01000000,0002.15,0001.20,0000.87,0000.67,0000.16,0000.41,0000.10,0000.06,0000.02,18.7,25.2,,00.0,0654.3,31.0
2021-09-21T20:14:00Z,00000200,01000000,0001.95,0001.18,0001.00,0000.30,0000.33,-000.14,0000.24,0000.08,0000.21,18.6,25.2,,00.0,0654.3,31.0
2021-09-21T20:15:00Z,00000200,01000000,0002.33,0001.24,0000.55,0000.23,0000.43,0000.22,0000.30,-000.11,0000.45,18.5,25.1,,00.0,0654.3,31.0
2021-09-21T20:16:00Z,00000200,01000000,0001.76,0001.45,0000.68,0000.44,0000.27,0000.10,-000.02,0000.36,-000.09,18.5,25.1,,00.0,0654.3,31.0
2021-09-21T20:17:00Z,00000200,01000000,0001.75,0001.49,0000.76,0000.06,-000.00,0000.10,0000.51,0000.21,0000.01,18.4,25.1,,00.0,0654.2,31.0
2021-09-21T20:18:00Z,00000200,01000000,0001.80,0001.60,0000.86,0000.15,0000.19,0000.13,0000.59,0000.52,0000.40,18.3,25.0,,00.0,0654.3,31.0
2021-09-21T20:19:00Z,00000200,01000000,0002.59,0001.26,0000.94,0000.49,0000.24,0000.22,0000.27,0000.31,0000.66,18.3,25.0,,00.0,0654.2,31.0
2021-09-21T20:20:00Z,00000200,01000000,0002.26,0000.78,0000.81,0000.76,0000.27,0000.07,0000.37,0000.69,0000.53,18.3,25.0,,00.0,0654.2,31.0
2021-09-21T20:21:00Z,00000200,01000000,0001.53,0001.44,0000.83,0000.58,0000.09,0000.02,0000.65,0000.34,0000.21,18.4,25.0,,00.0,0654.2,31.0
2021-09-21T20:22:00Z,00000200,01000000,0002.06,0001.08,0000.66,0000.31,0000.25,0000.14,0000.34,0000.57,0000.37,18.5,25.0,,00.0,0654.2,31.0
2021-09-21T20:23:00Z,00000200,01000000,0002.43,0001.51,0000.54,0000.44,0000.38,0000.08,0000.12,0000.07,0000.32,18.5,25.0,,00.0,0654.2,31.0
2021-09-21T20:24:00Z,00000200,01000000,0002.27,0001.54,0000.50,-000.43,0000.60,-000.29,0000.20,0000.60,0000.25,18.6,25.1,,00.0,0654.3,31.0
2021-09-21T20:25:00Z,00000200,01000000,0002.03,0001.27,0000.86,-000.46,0000.34,0000.06,0000.64,0000.10,0000.07,18.6,25.1,,00.0,0654.3,31.0
2021-09-21T20:26:00Z,00000200,01000000,0001.77,0001.17,0000.73,0000.58,0000.15,0000.24,0000.08,0000.43,0000.33,18.7,25.1,,00.0,0654.3,31.0
2021-09-21T20:27:00Z,00000200,01000000,0002.30,0001.61,0000.74,0000.39,0000.44,-000.13,0000.43,-000.02,0000.03,18.7,25.1,,00.0,0654.3,31.0
2021-09-21T20:28:00Z,00000200,01000000,0002.86,0001.69,0000.61,0000.45,-000.08,-000.17,0000.02,0000.24,-000.35,18.6,25.1,,00.0,0654.3,31.0
2021-09-21T20:29:00Z,00000200,01000000,0002.22,0001.26,0000.64,0000.97,0000.13,0000.21,0000.13,0000.05,0000.18,18.5,25.1,,00.0,0654.2,31.0
2021-09-21T20:30:00Z,00000200,01000000,0002.66,0001.19,0000.57,0000.96,0000.11,0000.35,0000.12,0000.54,0000.04,18.4,25.0,,00.0,0654.2,31.0
2021-09-21T20:31:00Z,00000200,01000000,0001.55,0001.23,0000.63,0000.35,0000.34,0000.12,0000.74,-000.11,0000.61,18.4,25.0,,00.0,0654.2,31.0
2021-09-21T20:32:00Z,00000200,01000000,0002.59,0001.23,0000.36,0000.35,0000.29,-000.00,0000.04,0000.40,0000.30,18.3,25.0,,00.0,0654.2,31.0
2021-09-21T20:33:00Z,00000200,01000000,0001.98,0001.44,0000.91,-000.07,0000.11,0000.01,0000.21,0000.29,0000.34,18.2,24.9,,00.0,0654.2,31.0
2021-09-21T20:34:00Z,00000200,01000000,0001.68,0001.30,0000.55,0000.20,0000.29,0000.49,0000.49,0000.06,0000.10,18.2,24.9,,00.0,0654.1,30.9
2021-09-21T20:35:00Z,00000200,01000000,0001.41,0001.43,0000.90,0000.21,0000.34,0000.26,0000.62,0000.91,0000.08,18.2,24.9,,00.0,0654.2,30.9
2021-09-21T20:36:00Z,00000200,01000000,0002.01,0001.32,0000.78,0000.43,0000.19,0000.19,0000.20,0000.36,0000.73,18.3,24.9,,00.0,0654.2,31.0
2021-09-21T20:37:00Z,00000200,01000000,0001.60,0001.70,0000.38,0000.13,0000.35,0000.05,0000.26,-000.17,0000.03,18.3,24.9,,00.0,0654.2,31.0
2021-09-21T20:38:00Z,00000200,01000000,0002.06,0001.10,0000.57,0000.88,0000.24,0000.06,0000.37,0000.53,0000.56,18.4,24.9,,00.0,0654.2,31.0
2021-09-21T20:39:00Z,00000200,01000000,0002.11,0001.19,0000.85,0000.54,0000.23,0000.05,0000.03,0000.10,-000.30,18.5,25.0,,00.0,0654.3,31.0
2021-09-21T20:40:00Z,00000200,01000000,0001.77,0000.97,0000.95,0000.46,0000.55,0000.06,0000.29,0000.39,0000.44,18.6,25.0,,00.0,0654.2,31.0
2021-09-21T20:41:00Z,00000200,01000000,0002.50,0001.53,0000.91,0000.61,0000.33,0000.09,0000.41,0000.10,0000.17,18.6,25.0,,00.0,0654.2,31.0
2021-09-21T20:42:00Z,00000200,01000000,0002.09,0000.95,0000.97,0001.07,0000.30,0000.11,-000.14,0000.42,0000.03,18.6,25.0,,00.0,0654.3,31.0
2021-09-21T20:43:00Z,00000200,01000000,0003.01,0001.54,0000.75,0000.47,0000.26,0000.14,0000.43,-000.38,0000.28,18.5,25.0,,00.0,0654.2,31.0
2021-09-21T20:44:00Z,00000200,01000000,0001.71,0000.88,0000.67,0000.89,0000.25,-000.01,-000.17,0000.17,-000.37,18.4,25.0,,00.0,0654.2,31.0
2021-09-21T20:45:00Z,00000200,01000000,0002.25,0001.41,0000.52,0000.16,0000.20,-000.12,0000.11,0000.23,0000.11,18.4,24.9,,00.0,0654.2,31.0
2021-09-21T20:46:00Z,00000200,01000000,0002.04,0001.60,0000.48,0000.51,0000.07,-000.28,0000.11,0000.13,-000.21,18.3,24.9,,00.0,0654.2,31.0
2021-09-21T20:47:00Z,00000200,01000000,0001.67,0001.48,0000.69,0000.34,0000.08,0000.20,0000.17,0000.17,0000.67,18.2,24.9,,00.0,0654.2,31.0
2021-09-21T20:48:00Z,00000200,01000000,0002.43,0001.43,0000.43,0001.37,0000.29,-000.22,0000.53,0000.17,0000.17,18.1,24.8,,00.0,0654.2,30.9
2021-09-21T20:49:00Z,00000200,01000000,0002.85,0001.16,0000.73,0000.49,0000.49,-000.28,0000.55,0000.41,0000.44,18.1,24.8,,00.0,0654.2,30.9
2021-09-21T20:50:00Z,00000200,01000000,0001.81,0001.03,0000.42,0000.25,0000.56,0000.13,0000.23,0000.53,0000.09,18.1,24.8,,00.0,0654.2,30.9
2021-09-21T20:51:00Z,00000200,01000000,0001.84,0001.75,0000.83,0000.07,0000.23,0000.53,0000.72,0000.45,0000.87,18.1,24.8,,00.0,0654.2,31.0
2021-09-21T20:52:00Z,00000200,01000000,0002.56,0001.07,0000.89,0000.66,0000.03,0000.07,0000.07,0000.48,0000.38,18.2,24.8,,00.0,0654.2,31.0
2021-09-21T20:53:00Z,00000200,01000000,0002.40,0001.17,0000.93,0000.23,0000.41,-000.07,0000.76,0000.61,0000.27,18.3,24.9,,00.0,0654.2,31.0
2021-09-21T20:54:00Z,00000200,01000000,0002.09,0001.06,0000.50,0000.29,0000.00,-000.09,0000.37,0000.34,0000.23,18.4,24.9,,00.0,0654.3,31.0
2021-09-21T20:55:00Z,00000200,01010000,0002.02,0001.36,0000.81,0001.33,0000.34,0000.04,0000.33,0000.27,0000.51,18.4,24.9,,00.0,0654.3,31.0
2021-09-21T20:56:00Z,00000200,01000000,0002.01,0001.41,0000.86,0000.45,0000.22,-000.20,0000.76,0000.69,0000.17,18.5,25.0,,00.0,0654.3,31.0
2021-09-21T20:57:00Z,00000200,41000000,,,,,,,0001.45,0001.22,0000.87,18.6,25.0,,00.0,0654.3,31.0
2021-09-21T20:58:00Z,00000200,61000000,,,,,,,-000.80,-001.05,-000.01,18.3,25.2,,00.0,0653.3,31.0
2021-09-21T20:59:00Z,00000200,21000000,,,,,,,-000.32,0000.38,-000.50,18.3,25.3,,00.0,0653.3,31.0
